Location: Monteux
(44.0348°N, 4.9972°E)
Time: 17:47:30
(UTC+00:00)

ARGOS - Pass Details

Date: 30 November 2020
Orbit: 820 x 835 km, 98.4° (Epoch: 23 January)

Event Time Altitude Azimuth Distance (km) Brightness Sun altitude
Exits shadow 18:27:17 27° 9° (N) 1,562 4.4 -25.2°
Drops below altitude 10° 18:29:46 10° 356° (N) 2,443 5.6 -25.7°
Sets 18:32:11 0° 352° (N) 3,378 6.4 -26.1°
